Location: Shannon
(40.5500°S, 175.4167°E)
Time: 19:53:44
(UTC+00:00)

Cosmos 1900 - Pass Details

Date: 17 November 2025
Orbit: 678 x 737 km, 66.1° (Epoch: 14 December)

Event Time Altitude Azimuth Distance (km) Brightness Sun altitude
Exits shadow 14:58:59 31° 341° (NNW) 1,207 5.0 -17.7°
Maximum altitude 15:01:19 76° 61° (ENE) 712 4.3 -17.4°
Drops below altitude 10° 15:06:11 10° 147° (SSE) 2,147 8.1 -16.7°
Sets 15:08:32 0° 148° (SSE) 3,071 9.2 -16.4°
